DW5184 Weather Reports


time (UTC)temp
C
wind
direction
speed
KPH
gust
KPH
rain 1hr
cm
rain 24hr
cm
rain mn
cm
humidity
%
barometer
mb
20190424034612 5 0.0 0.0 0.00 0.89 0.05 99 1010.9
20190424031544 5 0.0 0.0 0.00 0.89 0.05 99 1010.7
20190424024553 5 0.0 0.0 0.00 0.89 0.05 99 1010.6
20190424021604 5 0.0 0.0 0.00 0.89 0.05 99 1010.5
20190424011605 4 0.0 0.0 0.00 0.89 0.05 99 1010.2
20190424004622 4 0.0 0.0 0.00 0.89 0.05 99 1010.2
20190424001632 4 0.0 0.0 0.03 0.89 0.05 99 1010.2
20190423234548 3 0.0 0.0 0.05 0.89 0.05 99 1010.3
20190423231631 3 0.0 0.0 0.03 0.86 0.03 99 1010.3
20190423224609 3 0.0 0.0 0.00 0.84 0.00 99 1010.4
20190423221611 3 0.0 0.0 0.00 0.84 0.00 99 1010.4
20190423214559 3 0.0 0.0 0.05 0.84 0.84 99 1010.4
20190423211552 3 0.0 0.0 0.10 0.84 0.84 99 1010.8
20190423204533 3 0.0 0.0 0.05 0.79 0.79 99 1010.7
20190423201627 3 0.0 0.0 0.05 0.71 0.71 99 1010.5
20190423194610 4 0.0 0.0 0.05 0.71 0.71 99 1010.6
20190423191539 4 0.0 0.0 0.05 0.69 0.69 99 1010.5
20190423184609 4 0.0 0.0 0.05 0.66 0.66 99 1010.2
20190423181610 4 0.0 0.0 0.05 0.64 0.64 99 1009.8
20190423174546 4 0.0 0.0 0.03 0.61 0.61 99 1009.7
20190423171626 5 0.0 0.0 0.05 0.61 0.61 99 1009.4
20190423164605 5 0.0 0.0 0.13 0.58 0.58 99 1009.0
20190423154554 5 0.0 0.0 0.15 0.46 0.46 99 1008.8
20190423151613 4 0.0 0.0 0.13 0.36 0.36 99 1008.7
20190423144617 4 0.0 0.0 0.15 0.30 0.30 99 1008.9
20190423141551 4 0.0 0.0 0.05 0.23 0.23 99 1008.7
20190423134624 4 0.0 0.0 0.08 0.15 0.15 98 1008.7
20190423131651 3 0.0 0.0 0.13 0.15 0.15 99 1008.8
20190423124624 3 0.0 0.0 0.05 0.08 0.08 98 1008.8
20190423121536 3 0.0 0.0 0.03 0.05 0.05 98 1008.8
20190423114615 3 0.0 0.0 0.00 0.03 0.03 98 1008.4
20190423111543 3 0.0 0.0 0.00 0.03 0.03 98 1008.3
20190423104559 3 0.0 0.0 0.00 0.03 0.03 98 1008.0
20190423101621 3 0.0 0.0 0.03 0.03 0.03 98 1007.6
20190423093055 3 0.0 0.0 0.00 0.00 0.00 98 1007.4
20190423090036 3 0.0 0.0 0.00 0.00 0.00 98 1007.2
20190423083113 3 0.0 0.0 0.00 0.00 0.00 98 1006.9
20190423073057 2 0.0 0.0 0.00 0.00 0.00 97 1006.6
20190423070119 3 0.0 0.0 0.00 0.00 0.00 97 1006.4
20190423063045 3 0.0 0.0 0.00 0.00 0.00 96 1006.4
20190423060102 3 0.0 0.0 0.00 0.00 0.00 96 1006.2
20190423053104 3 0.0 0.0 0.00 0.00 0.00 95 1006.2
20190423050106 3 0.0 0.0 0.00 0.00 0.00 93 1006.2
20190423043143 3 0.0 0.0 0.00 0.00 0.00 91 1006.0
20190423040057 3 0.0 0.0 0.00 0.00 0.00 90 1005.7